Lid_Strength_Index
5 6 8 9 7 6 6 5 5 5 4 5 6 3 3 0 -0 -1 -1 -1 -1 -1 -1 -1 -1 -1 -1 -1 -1 -1 -1 -1
6 8 7 7 6 5 6 5 4 4 7 4 2 3 1 -0 -0 -0 -0 -1 -1 -1 -1 -1 -1 -1 -1 -1 -1 -1 -1 -1
7 7 6 5 5 5 6 5 5 4 7 6 2 1 0 0 -0 0 -0 -1 -1 -1 -1 -1 -1 -1 -1 -1 -1 -1 -1 -1
8 7 6 5 5 5 5 5 5 5 6 5 2 2 1 -0 -0 -1 -0 -1 -1 -1 -1 -1 -1 -1 -1 -1 -1 -1 -1 -1
7 7 7 6 4 6 5 5 6 4 7 4 3 1 0 -0 -1 -1 -1 -1 -1 -1 -1 -1 -1 -1 -1 -1 -1 -1 -1 -1
6 7 8 6 5 4 5 6 3 3 6 6 3 1 0 -0 -0 -0 -1 -1 -1 -1 -1 -1 -1 -1 -1 -1 -1 -1 -1 -1
7 7 7 5 6 4 3 4 4 3 4 3 1 0 1 1 1 1 1 1 1 1 -0 -1 -1 -1 -1 -1 -1 -1 -2 -1
5 5 5 5 5 5 5 5 5 5 3 2 1 1 2 2 2 2 3 2 1 1 0 0 1 -1 -1 -1 -1 -2 -1 -1
5 4 4 5 5 4 5 6 5 5 4 3 2 2 2 2 1 1 0 -0 -1 -1 -2 -1 -1 -1 -2 -2 -2 -2 -2 -2
4 4 4 5 4 5 4 4 3 3 3 3 2 2 2 2 1 1 0 -0 -1 -1 -1 -2 -2 -1 -1 -1 -2 -2 -2 -3
4 4 4 4 4 5 4 3 2 2 2 3 2 2 1 1 0 0 0 -0 -1 -1 -1 -2 -2 -1 -1 -1 -1 -2 -2 -2
4 4 4 5 5 4 4 3 3 3 3 2 2 2 1 1 1 0 -0 -0 -1 -1 -1 -1 -1 -1 -2 -2 -2 -3 -3 -2
4 4 5 4 6 5 4 3 4 4 3 2 2 1 1 1 1 0 0 -1 -1 -1 -1 -1 -1 -2 -2 -2 -2 -2 -2 -3
5 4 4 5 7 4 3 4 4 4 3 3 2 2 1 1 0 -0 -0 -0 -1 -1 -1 -1 -2 -1 -1 -2 -1 -1 -2 -2
7 4 5 5 7 4 3 4 4 4 4 3 3 2 1 1 0 -0 -0 -0 -0 -1 -1 -1 -1 -1 -2 -2 -1 -1 -2 -2
8 6 5 6 6 5 4 4 4 4 4 3 3 2 1 1 0 -0 -0 -1 -1 -1 -1 -1 -1 -1 -1 -1 -1 -2 -1 -1
7 5 6 6 6 5 4 4 4 4 4 4 3 2 1 1 0 0 -0 -0 -0 -0 -1 -0 -0 0 0 0 -0 -1 -1 -2
7 6 6 6 7 5 5 5 4 4 4 4 3 3 2 1 1 0 0 -0 -0 -0 -1 -1 -0 -0 -0 -0 -0 -1 -1 -2
8 7 6 7 7 6 5 4 4 4 3 3 3 3 2 2 1 1 1 0 -0 -0 -1 -1 -1 -1 -1 -1 -0 0 -0 -0
7 8 10 6 11 7 6 6 5 4 4 4 3 3 2 2 1 1 1 0 0 -0 -0 -1 -1 -1 0 1 1 0 0 -0